SCP
0 0 0 0 0 0 0 0 0 0 0 0 0 0 0 0 0 0 0 0 0 0
0 0 0 0 0 0 0 0 0 0 0 0 0 0 0 0 0 0 0 0 0 0
0 0 0 0 0 0 0 0 0 0 0 0 0 0 0 0 0 0 0 0 0 0
0 0 0 0 0 0 0 0 0 0 0 0 0 0 0 0 0 0 0 0 0 0
0 0 0 0 0 0 0 0 0 0 0 0 0 0 0 0 0 0 0 0 0 0
0 0 0 0 0 0 0 0 0 0 0 0 0 0 0 0 0 0 0 0 0 0
0 0 0 0 0 0 0 0 0 0 0 0 0 0 0 0 0 0 0 0 0 0
0 0 0 0 0 0 0 0 0 0 0 0 0 0 0 0 0 0 0 0 0 0
0 0 0 0 0 0 0 0 0 0 0 0 0 0 0 0 0 0 0 0 0 0
0 0 0 0 0 0 0 0 0 0 0 0 0 0 0 0 0 0 0 0 0 0
0 0 0 0 0 0 0 0 0 0 0 0 0 0 0 0 0 0 0 0 0 0
0 0 0 0 0 0 0 0 0 0 0 0 0 0 0 0 0 0 0 0 0 0
0 0 0 0 0 0 0 0 0 0 0 0 0 0 0 0 0 0 0 0 0 0
0 0 0 0 0 0 0 0 0 0 0 0 0 0 0 0 0 0 0 0 0 0
Wind_Speed_500mb
16 12 8 8 9 12 17 21 26 32 38 45 52 58 64 67 69 72 78 82 84 86
13 10 9 10 12 16 20 24 27 32 36 40 44 49 55 62 68 75 79 83 86 88
13 14 15 18 22 25 28 31 35 37 40 42 45 49 53 58 60 67 74 79 84 86
14 15 17 19 22 26 29 32 35 38 41 43 46 49 57 61 65 70 74 76 82 87
17 18 21 23 26 29 33 36 40 44 47 50 52 53 55 58 60 67 73 76 78 83
17 20 24 27 31 34 36 40 45 49 52 55 58 61 63 67 69 70 71 72 75 78
21 25 30 35 38 42 45 48 51 55 58 60 62 66 69 71 74 76 79 80 79 79
27 32 36 40 45 49 54 58 60 61 62 64 65 68 71 74 76 78 81 82 83 81
37 42 46 49 51 54 56 58 61 63 66 66 67 69 72 75 79 78 80 82 80 81
43 46 50 54 58 61 63 65 66 68 72 75 75 74 74 74 77 79 79 80 80 80
46 51 53 56 60 64 68 69 71 75 79 82 83 83 81 76 75 75 75 73 70 70
51 54 57 59 62 65 68 70 74 77 81 85 86 85 84 78 78 78 74 68 66 63
53 57 60 62 62 63 67 71 74 76 76 77 78 75 74 73 74 78 75 71 66 58
55 59 61 65 65 68 70 71 72 72 71 69 65 69 69 66 62 61 64 62 64 61
Wind_Direction_500mb
81 72 49 14 345 321 312 306 299 290 282 277 271 268 268 274 278 278 279 276 278 277
75 61 32 1 343 330 322 315 311 306 302 299 294 289 284 278 274 274 275 277 278 277
39 20 360 345 334 326 319 314 310 306 303 300 296 293 290 287 285 282 281 280 280 280
23 8 356 343 335 332 329 326 323 320 315 310 304 298 294 291 290 288 286 284 283 282
7 359 350 342 338 334 331 329 326 323 320 318 315 312 306 300 295 291 289 288 284 283
7 0 354 349 345 341 338 335 330 325 320 316 314 312 309 308 306 301 296 291 288 286
358 353 347 342 337 333 330 328 326 323 320 317 315 312 309 306 304 303 302 299 295 290
349 342 337 331 328 325 324 322 321 319 317 316 316 314 311 307 305 304 301 299 297 295
338 332 329 326 325 324 323 322 322 321 320 319 316 313 311 310 308 306 304 301 300 298
330 327 323 321 321 321 320 320 320 320 320 319 319 317 314 312 309 308 306 303 301 300
325 321 319 318 318 317 316 317 318 319 319 318 318 317 316 314 310 307 305 304 303 301
319 315 312 312 314 314 313 313 313 314 314 314 314 315 315 315 313 310 308 305 303 302
309 307 307 308 308 308 308 308 308 309 310 310 311 312 312 313 309 306 305 304 307 307
307 307 307 307 307 308 308 308 310 312 314 314 316 315 314 315 310 304 303 306 309 308
Wind_Speed_850mb
16 12 8 8 9 12 17 21 26 32 38 45 52 58 64 67 69 72 78 82 84 86
13 10 9 10 12 16 20 24 27 32 36 40 44 49 55 62 68 75 79 83 86 88
13 14 15 18 22 25 28 31 35 37 40 42 45 49 53 58 60 67 74 79 84 86
14 15 17 19 22 26 29 32 35 38 41 43 46 49 57 61 65 70 74 76 82 87
17 18 21 23 26 29 33 36 40 44 47 50 52 53 55 58 60 67 73 76 78 83
17 20 24 27 31 34 36 40 45 49 52 55 58 61 63 67 69 70 71 72 75 78
21 25 30 35 38 42 45 48 51 55 58 60 62 66 69 71 74 76 79 80 79 79
27 32 36 40 45 49 54 58 60 61 62 64 65 68 71 74 76 78 81 82 83 81
37 42 46 49 51 54 56 58 61 63 66 66 67 69 72 75 79 78 80 82 80 81
43 46 50 54 58 61 63 65 66 68 72 75 75 74 74 74 77 79 79 80 80 80
46 51 53 56 60 64 68 69 71 75 79 82 83 83 81 76 75 75 75 73 70 70
51 54 57 59 62 65 68 70 74 77 81 85 86 85 84 78 78 78 74 68 66 63
53 57 60 62 62 63 67 71 74 76 76 77 78 75 74 73 74 78 75 71 66 58
55 59 61 65 65 68 70 71 72 72 71 69 65 69 69 66 62 61 64 62 64 61
Wind_Direction_850mb
81 72 49 14 345 321 312 306 299 290 282 277 271 268 268 274 278 278 279 276 278 277
75 61 32 1 343 330 322 315 311 306 302 299 294 289 284 278 274 274 275 277 278 277
39 20 360 345 334 326 319 314 310 306 303 300 296 293 290 287 285 282 281 280 280 280
23 8 356 343 335 332 329 326 323 320 315 310 304 298 294 291 290 288 286 284 283 282
7 359 350 342 338 334 331 329 326 323 320 318 315 312 306 300 295 291 289 288 284 283
7 0 354 349 345 341 338 335 330 325 320 316 314 312 309 308 306 301 296 291 288 286
358 353 347 342 337 333 330 328 326 323 320 317 315 312 309 306 304 303 302 299 295 290
349 342 337 331 328 325 324 322 321 319 317 316 316 314 311 307 305 304 301 299 297 295
338 332 329 326 325 324 323 322 322 321 320 319 316 313 311 310 308 306 304 301 300 298
330 327 323 321 321 321 320 320 320 320 320 319 319 317 314 312 309 308 306 303 301 300
325 321 319 318 318 317 316 317 318 319 319 318 318 317 316 314 310 307 305 304 303 301
319 315 312 312 314 314 313 313 313 314 314 314 314 315 315 315 313 310 308 305 303 302
309 307 307 308 308 308 308 308 308 309 310 310 311 312 312 313 309 306 305 304 307 307
307 307 307 307 307 308 308 308 310 312 314 314 316 315 314 315 310 304 303 306 309 308